Location: Bessat
(45.8735°N, 1.9924°E)
Time: 19:23:52
(UTC+00:00)

X-37B - Pass Details

Date: 11 May 2021
Orbit: 386 x 389 km, 45.0° (Epoch: 10 June)

Event Time Altitude Azimuth Distance (km) Brightness Sun altitude
Rises 21:33:18 0° 275° (W) 2,273 5.1 -19.1°
Reaches altitude 10° 21:35:49 10° 255° (WSW) 1,414 3.6 -19.3°
Enters shadow 21:36:57 15° 236° (WSW) 1,149 2.9 -19.4°
